When you browse on this site, cookies collect data to enhance your experience and personalize the content and advertising you see.
Visit our Privacy Policy to learn more. By continuing to use the site, you agree to this use of cookies and data.
  • In Österreich
  • Länderverzeichnis
  • Für 7 Tage
  • Wassertemperatur
  • Satellitenkarten
  • Wetterkarte
  • News
  • Widgets
  • user-avatar
    Anmelden

    Stündliche Wetter Makadi Bey

    Heute, 19 Januar, Samstag

    Zeit Temperatur Niederschläge Wind Luftdruck Luftfeuchtigkeit
    00:00 +9°C° 0 mm 1 m/S 708 mmHg 48%
    01:00 +9°C° 0 mm 1 m/S 708 mmHg 49%
    02:00 +8°C° 0 mm 1 m/S 707 mmHg 50%
    03:00 +8°C° 0 mm 1 m/S 707 mmHg 50%
    04:00 +8°C° 0 mm 1 m/S 707 mmHg 50%
    05:00 +7°C° 0 mm 1 m/S 707 mmHg 50%
    06:00 +8°C° 0 mm 0 m/S 708 mmHg 44%
    07:00 +9°C° 0 mm 0 m/S 708 mmHg 38%
    08:00 +11°C° 0 mm 0 m/S 709 mmHg 32%
    09:00 +13°C° 0 mm 0 m/S 709 mmHg 27%
    10:00 +15°C° 0 mm 0 m/S 709 mmHg 21%
    11:00 +17°C° 0 mm 0 m/S 710 mmHg 16%
    12:00 +19°C° 0 mm 1 m/S 709 mmHg 15%
    13:00 +20°C° 0 mm 1 m/S 709 mmHg 14%
    14:00 +21°C° 0 mm 1 m/S 709 mmHg 13%
    15:00 +20°C° 0 mm 1 m/S 709 mmHg 15%
    16:00 +19°C° 0 mm 1 m/S 709 mmHg 17%
    17:00 +18°C° 0 mm 1 m/S 708 mmHg 19%
    18:00 +16°C° 0 mm 1 m/S 708 mmHg 23%
    19:00 +14°C° 0 mm 1 m/S 708 mmHg 28%
    20:00 +12°C° 0 mm 0 m/S 708 mmHg 32%
    21:00 +12°C° 0 mm 0 m/S 708 mmHg 33%
    22:00 +11°C° 0 mm 0 m/S 708 mmHg 35%
    23:00 +11°C° 0 mm 0 m/S 708 mmHg 36%

    Morgen, 20 Januar, Sonntag

    Zeit Temperatur Niederschläge Wind Luftdruck Luftfeuchtigkeit
    00:00 +10°C° 0 mm 0 m/S 708 mmHg 36%
    01:00 +10°C° 0 mm 0 m/S 708 mmHg 36%
    02:00 +10°C° 0 mm 0 m/S 708 mmHg 35%
    03:00 +9°C° 0 mm 0 m/S 708 mmHg 35%
    04:00 +9°C° 0 mm 0 m/S 707 mmHg 35%
    05:00 +9°C° 0 mm 0 m/S 707 mmHg 35%
    06:00 +10°C° 0 mm 0 m/S 708 mmHg 32%
    07:00 +12°C° 0 mm 0 m/S 708 mmHg 29%
    08:00 +13°C° 0 mm 0 m/S 709 mmHg 26%
    09:00 +15°C° 0 mm 0 m/S 709 mmHg 23%
    10:00 +17°C° 0 mm 0 m/S 709 mmHg 21%
    11:00 +18°C° 0 mm 0 m/S 710 mmHg 18%
    12:00 +21°C° 0 mm 1 m/S 709 mmHg 17%
    13:00 +22°C° 0 mm 1 m/S 709 mmHg 15%
    14:00 +23°C° 0 mm 1 m/S 708 mmHg 14%
    15:00 +22°C° 0 mm 1 m/S 708 mmHg 16%
    16:00 +21°C° 0 mm 1 m/S 708 mmHg 18%
    17:00 +20°C° 0 mm 1 m/S 707 mmHg 21%
    18:00 +17°C° 0 mm 0 m/S 708 mmHg 24%
    19:00 +15°C° 0 mm 0 m/S 708 mmHg 28%
    20:00 +14°C° 0 mm 0 m/S 708 mmHg 31%
    21:00 +14°C° 0 mm 0 m/S 708 mmHg 31%
    22:00 +13°C° 0 mm 0 m/S 708 mmHg 31%
    23:00 +13°C° 0 mm 0 m/S 708 mmHg 31%

    übermorgen, 21 Januar, Montag

    Zeit Temperatur Niederschläge Wind Luftdruck Luftfeuchtigkeit
    00:00 +12°C° 0 mm 0 m/S 708 mmHg 31%
    01:00 +12°C° 0 mm 0 m/S 707 mmHg 30%
    02:00 +11°C° 0 mm 0 m/S 707 mmHg 30%
    03:00 +11°C° 0 mm 0 m/S 707 mmHg 31%
    04:00 +11°C° 0 mm 0 m/S 706 mmHg 31%
    05:00 +10°C° 0 mm 0 m/S 706 mmHg 32%
    06:00 +12°C° 0 mm 0 m/S 707 mmHg 31%
    07:00 +13°C° 0 mm 0 m/S 707 mmHg 29%
    08:00 +16°C° 0 mm 1 m/S 708 mmHg 28%
    09:00 +17°C° 0 mm 0 m/S 708 mmHg 24%
    10:00 +19°C° 0 mm 0 m/S 708 mmHg 20%
    11:00 +20°C° 0 mm 0 m/S 709 mmHg 16%
    12:00 +21°C° 0 mm 0 m/S 708 mmHg 15%
    13:00 +24°C° 0 mm 1 m/S 708 mmHg 14%
    14:00 +24°C° 0 mm 1 m/S 707 mmHg 13%
    15:00 +23°C° 0 mm 1 m/S 707 mmHg 15%
    16:00 +22°C° 0 mm 1 m/S 707 mmHg 17%
    17:00 +21°C° 0 mm 1 m/S 707 mmHg 20%
    18:00 +20°C° 0 mm 1 m/S 707 mmHg 23%
    19:00 +19°C° 0 mm 1 m/S 707 mmHg 27%
    20:00 +18°C° 0 mm 1 m/S 708 mmHg 31%
    21:00 +16°C° 0 mm 1 m/S 707 mmHg 33%
    22:00 +16°C° 0 mm 1 m/S 707 mmHg 35%
    23:00 +15°C° 0 mm 1 m/S 707 mmHg 36%

    22 Januar, Dienstag

    Zeit Temperatur Niederschläge Wind Luftdruck Luftfeuchtigkeit
    00:00 +14°C° 0 mm 1 m/S 707 mmHg 37%
    01:00 +13°C° 0 mm 0 m/S 707 mmHg 37%
    02:00 +12°C° 0 mm 0 m/S 706 mmHg 38%
    03:00 +11°C° 0 mm 0 m/S 706 mmHg 37%
    04:00 +11°C° 0 mm 0 m/S 706 mmHg 36%
    05:00 +11°C° 0 mm 0 m/S 706 mmHg 35%
    06:00 +12°C° 0 mm 0 m/S 706 mmHg 31%
    07:00 +14°C° 0 mm 0 m/S 707 mmHg 27%
    08:00 +15°C° 0 mm 0 m/S 708 mmHg 23%
    09:00 +17°C° 0 mm 0 m/S 708 mmHg 20%
    10:00 +19°C° 0 mm 0 m/S 708 mmHg 16%
    11:00 +21°C° 0 mm 0 m/S 709 mmHg 13%
    12:00 +24°C° 0 mm 1 m/S 708 mmHg 12%
    13:00 +25°C° 0 mm 1 m/S 708 mmHg 12%
    14:00 +25°C° 0 mm 1 m/S 707 mmHg 11%
    15:00 +24°C° 0 mm 1 m/S 707 mmHg 12%
    16:00 +23°C° 0 mm 1 m/S 707 mmHg 14%
    17:00 +22°C° 0 mm 1 m/S 706 mmHg 16%
    18:00 +21°C° 0 mm 1 m/S 706 mmHg 20%
    19:00 +17°C° 0 mm 0 m/S 706 mmHg 24%
    20:00 +15°C° 0 mm 0 m/S 706 mmHg 27%
    21:00 +14°C° 0 mm 0 m/S 706 mmHg 29%
    22:00 +14°C° 0 mm 0 m/S 706 mmHg 30%
    23:00 +13°C° 0 mm 0 m/S 706 mmHg 32%

    23 Januar, Mittwoch

    Zeit Temperatur Niederschläge Wind Luftdruck Luftfeuchtigkeit
    00:00 +13°C° 0 mm 0 m/S 706 mmHg 32%
    01:00 +12°C° 0 mm 0 m/S 705 mmHg 32%
    02:00 +12°C° 0 mm 0 m/S 705 mmHg 32%
    03:00 +12°C° 0 mm 0 m/S 705 mmHg 32%
    04:00 +11°C° 0 mm 0 m/S 705 mmHg 33%
    05:00 +11°C° 0 mm 0 m/S 704 mmHg 34%
    06:00 +12°C° 0 mm 0 m/S 705 mmHg 32%
    07:00 +15°C° 0 mm 1 m/S 706 mmHg 31%
    08:00 +18°C° 0 mm 1 m/S 706 mmHg 29%
    09:00 +20°C° 0 mm 1 m/S 706 mmHg 26%
    10:00 +22°C° 0 mm 1 m/S 706 mmHg 22%
    11:00 +24°C° 0 mm 1 m/S 707 mmHg 19%
    12:00 +25°C° 0 mm 2 m/S 706 mmHg 18%
    13:00 +25°C° 0 mm 2 m/S 706 mmHg 17%
    14:00 +26°C° 0 mm 3 m/S 705 mmHg 17%
    15:00 +25°C° 0 mm 2 m/S 705 mmHg 19%
    16:00 +24°C° 0 mm 2 m/S 705 mmHg 21%
    17:00 +23°C° 0 mm 1 m/S 704 mmHg 23%
    18:00 +22°C° 0 mm 1 m/S 704 mmHg 29%
    19:00 +20°C° 0 mm 1 m/S 704 mmHg 35%
    20:00 +18°C° 0 mm 1 m/S 704 mmHg 40%
    21:00 +18°C° 0 mm 1 m/S 704 mmHg 42%
    22:00 +16°C° 0 mm 1 m/S 704 mmHg 44%
    23:00 +16°C° 0 mm 1 m/S 704 mmHg 46%

    24 Januar, Donnerstag

    Zeit Temperatur Niederschläge Wind Luftdruck Luftfeuchtigkeit
    00:00 +15°C° 0 mm 1 m/S 704 mmHg 45%
    01:00 +15°C° 0 mm 1 m/S 704 mmHg 44%
    02:00 +14°C° 0 mm 0 m/S 703 mmHg 43%
    03:00 +14°C° 0 mm 1 m/S 703 mmHg 41%
    04:00 +14°C° 0 mm 1 m/S 703 mmHg 40%
    05:00 +14°C° 0 mm 1 m/S 703 mmHg 38%
    06:00 +16°C° 0 mm 1 m/S 704 mmHg 33%
    07:00 +18°C° 0 mm 1 m/S 705 mmHg 28%
    08:00 +20°C° 0 mm 1 m/S 705 mmHg 23%
    09:00 +21°C° 0 mm 2 m/S 706 mmHg 19%
    10:00 +24°C° 0 mm 2 m/S 706 mmHg 15%
    11:00 +27°C° 0 mm 3 m/S 707 mmHg 11%
    12:00 +28°C° 0 mm 3 m/S 706 mmHg 11%
    13:00 +28°C° 0 mm 4 m/S 706 mmHg 10%
    14:00 +29°C° 0 mm 4 m/S 706 mmHg 9%
    15:00 +28°C° 0 mm 3 m/S 705 mmHg 11%
    16:00 +26°C° 0 mm 2 m/S 705 mmHg 13%
    17:00 +25°C° 0 mm 1 m/S 705 mmHg 15%
    18:00 +23°C° 0 mm 1 m/S 705 mmHg 19%
    19:00 +22°C° 0 mm 1 m/S 705 mmHg 23%
    20:00 +20°C° 0 mm 1 m/S 705 mmHg 27%
    21:00 +19°C° 0 mm 1 m/S 705 mmHg 32%
    22:00 +19°C° 0 mm 1 m/S 705 mmHg 36%
    23:00 +18°C° 0 mm 1 m/S 705 mmHg 41%
    Mehr zeigen